THOR ABLESTAR DEB, 1435

Orbit data source: Space-Track

THOR ABLESTAR DEB, 1435 is space debris in LEO originally from a launch on Thu, 24 Jun 1965 UTC launched from the Air Force Western Test Range (AFWTR). Debris objects in space refer to the collection of defunct objects orbiting the Earth. Examples of debris include non-operational satellites, rocket bodies, and fragments generated from explosions, collisions, or faulty payload assembly.

Loading next visibility...
THOR ABLESTAR DEB details
Identifier
1435, 1965-048D
Orbit
LEO
Last TLE update8 hours ago
Origin
Flag of USUSN BuWeps (US)
ManufacturerUnknown
MissionSpacecraft
Bus & MotorUnknown
MassUnknown
Launch date (UTC)
1965-06-24 (59 years ago)
Launch vehicleUnknown
Launch site
Air Force Western Test Range (AFWTR)
Object type
Payload
Rocket body
Debris
Shape & HBRUnknown
Radar Cross SectionSmall (<0.1 m²)

Expand to show TLE details & history

TLE from 8 hours ago
0 THOR ABLESTAR DEB
1  1435U 65048D   24356.35234177  .00001174  00000-0  12577-2 0  9995
2  1435  89.8944 296.5583 0059785 144.3798  27.2254 13.72369270952968
Epoch: 2024-12-21T08:27Z
Definitive object data (Epoch: 2024-12-21T08:27:22.328Z)
Latitude8.01146°
Longitude-100.70425°
Altitude954.253 km
Speed7.395 km/s
True Right ascension07h 46m 10s
True Declination7° 57' 55"
Sunlit
Object was in full shadow at TLE epoch
Visualization TLE readout
Latitude-70.83892°
Longitude79.0047°
Altitude1,053.927 km
Speed7.306 km/s
Apparent Right ascension01h 06m 02s
Apparent Declination-67° 05' 15"
Sunlit
Object is in daylight
Visualization observer readout
Local Sidereal Time15:03:56
Azimuth158.607° S
Elevation-58.32°
Doppler factor1
Orbital elements
Apogee altitude1,032.133 km
Perigee altitude944.055 km
Semi-major axis7,366.231 km
Eccentricity0.0059785
Inclination89.8944°
RAAN296.5583°
Arg. of periapsis144.3798°
True anomaly27.54092°
Mean anomaly27.2254°
Eccentric anomaly27.38295°
Mean motion3.43301 °/min
BSTAR0.0012577
Orbital period104.86 mins
Loading maneuver chart data...

THOR ABLESTAR DEB Visibility forecast

Observer location: undefined°, undefined

Span
Click to sort rows by Start time (UTC) header in descending order
Start Az.
Max El. time (UTC)
Max El. Az.
Max El.
End time (UTC)
End Az.
11 mins2024-12-21 19:58:33.210Z149.946° SSE2024-12-21 20:04:33.210Z75.089° E34.803°2024-12-21 20:09:33.210Z13.482° NNE
8 mins2024-12-21 21:45:33.210Z231.595° WSW2024-12-21 21:49:33.210Z282.479° WNW24.377°2024-12-21 21:53:33.210Z328.489° NNW
10 mins2024-12-22 08:43:33.210Z358.371° N2024-12-22 08:47:33.210Z324.435° NNW43.768°2024-12-22 08:53:33.210Z189.031° SSW
|